Weather History for Keahole Point, HI

Change the Weather History Date:

Monday, August 5, 2013

  Actual Average Record
Temperature  
Mean Temperature 80 °F -  
Max Temperature 84 °F 83 °F 93 °F (1986)
Min Temperature 75 °F 73 °F 71 °F (2010)
Cooling Degree Days 14    
Growing Degree Days 30 (Base 50)    
Moisture  
Dew Point 67 °F    
Average Humidity 63    
Maximum Humidity 69    
Minimum Humidity 56    
Precipitation  
Precipitation 0.00 in - - ()
Sea Level Pressure  
Sea Level Pressure 29.96 in    
Wind  
Wind Speed 5 mph (South)    
Max Wind Speed 13 mph    
Max Gust Speed -    
Visibility 10 miles    
Events      
Averages and records for this station are not official NWS values.
T = Trace of Precipitation, MM = Missing Value Source: NWS Daily Summary

Daily Weather History Graph

Daily Weather History Graph

Search for Another Location

Airport:

Trip Planner

Search our weather history database for the weather conditions in past years. The results will help you decide how hot, cold, wet, or windy it might be!

Date:

Astronomy

Aug. 05, 2013 Rise Set
Actual Time 6:01 AM HST 6:58 PM HST
Civil Twilight 5:38 AM HST 7:21 PM HST
Nautical Twilight 5:10 AM HST 7:49 PM HST
Astronomical Twilight 4:42 AM HST 8:17 PM HST
Moon 5:04 AM HST (8/5) 6:11 PM HST (8/5)
Length of Visible Light 13h 43m
Length of Day
12h 56m
Waning Crescent, 1% of the Moon is Illuminated
Aug 5
Waning Crescent
Aug 6
New
Aug 14
First Quarter
Aug 20
Full
Aug 27
Last Quarter

Hourly Weather History & Observations

Time (HST) Temp. Heat Index Dew Point Humidity Pressure Visibility Wind Dir Wind Speed Gust Speed Precip Events Conditions
12:53 AM 78.1 °F - 63.0 °F 60% 29.97 in 10.0 mi NE 3.5 mph - N/A   Clear
1:53 AM 77.0 °F - 63.0 °F 62% 29.96 in 10.0 mi ENE 3.5 mph - N/A   Clear
2:53 AM 75.9 °F - 63.0 °F 64% 29.95 in 10.0 mi Calm Calm - N/A   Clear
3:53 AM 75.9 °F - 64.0 °F 67% 29.95 in 10.0 mi ENE 3.5 mph - N/A   Clear
4:53 AM 75.0 °F - 64.0 °F 69% 29.95 in 10.0 mi ENE 3.5 mph - N/A   Clear
5:53 AM 75.0 °F - 63.0 °F 66% 29.96 in 10.0 mi East 3.5 mph - N/A   Clear
6:53 AM 77.0 °F - 64.0 °F 64% 29.98 in 10.0 mi ESE 3.5 mph - N/A   Clear
7:53 AM 80.1 °F 82.3 °F 66.9 °F 64% 29.98 in 10.0 mi SSE 4.6 mph - N/A   Clear
8:53 AM 82.0 °F 83.8 °F 64.9 °F 56% 29.99 in 10.0 mi South 6.9 mph - N/A   Clear
9:53 AM 84.0 °F 86.5 °F 66.9 °F 56% 29.99 in 10.0 mi SSW 10.4 mph - N/A   Clear
10:53 AM 84.0 °F 87.0 °F 68.0 °F 58% 29.99 in 10.0 mi SSW 11.5 mph - N/A   Clear
11:53 AM 84.9 °F 88.2 °F 68.0 °F 57% 29.97 in 10.0 mi SSW 11.5 mph - N/A   Clear
12:53 PM 84.9 °F 88.8 °F 69.1 °F 59% 29.96 in 10.0 mi SSW 12.7 mph - N/A   Partly Cloudy
1:53 PM 84.0 °F 88.4 °F 70.0 °F 63% 29.94 in 10.0 mi SSW 12.7 mph - N/A   Scattered Clouds
2:53 PM 84.0 °F 88.4 °F 70.0 °F 63% 29.93 in 10.0 mi SW 10.4 mph - N/A   Scattered Clouds
3:53 PM 84.0 °F 87.8 °F 69.1 °F 61% 29.92 in 10.0 mi WSW 9.2 mph - N/A   Partly Cloudy
4:53 PM 82.9 °F 85.8 °F 68.0 °F 60% 29.92 in 10.0 mi SW 10.4 mph - N/A   Overcast
5:53 PM 81.0 °F 84.1 °F 69.1 °F 67% 29.94 in 10.0 mi SW 6.9 mph - N/A   Overcast
6:53 PM 81.0 °F 84.1 °F 69.1 °F 67% 29.95 in 10.0 mi SW 4.6 mph - N/A   Overcast
7:53 PM 81.0 °F 84.1 °F 69.1 °F 67% 29.97 in 10.0 mi South 4.6 mph - N/A   Overcast
8:53 PM 80.1 °F 82.9 °F 69.1 °F 69% 29.99 in 10.0 mi South 5.8 mph - N/A   Overcast
9:53 PM 80.1 °F 82.7 °F 68.0 °F 67% 29.99 in 10.0 mi Calm Calm - N/A   Mostly Cloudy
10:53 PM 80.1 °F 82.7 °F 68.0 °F 67% 30.00 in 10.0 mi South 3.5 mph - N/A   Overcast
11:53 PM 80.1 °F 82.1 °F 66.0 °F 62% 29.99 in 10.0 mi SSE 3.5 mph - N/A   Clear